This is the latest recevied weather packets stored in our database for station/object YO8PIC-4. If no packets are shown the sender has not sent any weather packets the latest 10 day(s).
| Time | Temp. | Humidity | Pressure | Rain* | Wind** | Luminosity | Snow |
|---|---|---|---|---|---|---|---|
| 1777981957 | 26.67° C | 48% | 1010.3 hPa | - | - | - | - |
| 1777981357 | 27.22° C | 44% | 1010.4 hPa | - | - | - | - |
| 1777980757 | 27.22° C | 46% | 1010.5 hPa | - | - | - | - |
| 1777980156 | 26.11° C | 48% | 1010.7 hPa | - | - | - | - |
| 1777979556 | 25° C | 50% | 1010 hPa | - | - | - | - |
| 1777978950 | 26.11° C | 51% | 1010.8 hPa | - | - | - | - |
| 1777978350 | 26.11° C | 51% | 1010.9 hPa | - | - | - | - |
| 1777977750 | 26.67° C | 50% | 1011 hPa | - | - | - | - |
| 1777977149 | 28.33° C | 45% | 1011.1 hPa | - | - | - | - |
| 1777976549 | 28.33° C | 46% | 1011.1 hPa | - | - | - | - |
| 1777975949 | 28.33° C | 46% | 1011.2 hPa | - | - | - | - |
| 1777975349 | 27.78° C | 46% | 1011.3 hPa | - | - | - | - |
| 1777974749 | 27.78° C | 46% | 1011.4 hPa | - | - | - | - |
| 1777974149 | 28.33° C | 46% | 1011.5 hPa | - | - | - | - |
| 1777973549 | 27.22° C | 49% | 1011.7 hPa | - | - | - | - |
| 1777972948 | 26.11° C | 52% | 1011.8 hPa | - | - | - | - |
| 1777972383 | 27.22° C | 48% | 1011.9 hPa | - | - | - | - |
| 1777972348 | 27.22° C | 48% | 1011.9 hPa | - | - | - | - |
| 1777971748 | 26.11° C | 52% | 1012 hPa | - | - | - | - |
| 1777971148 | 27.22° C | 47% | 1012 hPa | - | - | - | - |
| 1777970548 | 26.11° C | 48% | 1012.1 hPa | - | - | - | - |
| 1777969948 | 26.11° C | 47% | 1012.2 hPa | - | - | - | - |
| 1777969348 | 26.67° C | 49% | 1012.3 hPa | - | - | - | - |
| 1777968747 | 26.67° C | 49% | 1012.3 hPa | - | - | - | - |
| 1777968146 | 25.56° C | 50% | 1012.3 hPa | - | - | - | - |
* Rain since midnight (hover to see other rain measurements)
** Current wind speed in m/s (hover to see current wind gust speed)